Change the Weather History Date:

Friday, December 28, 2012

  Actual Average Record
Temperature  
Mean Temperature 44 °F 51 °F  
Max Temperature 55 °F 64 °F 82 °F (1922)
Min Temperature 32 °F 39 °F 18 °F (1954)
Degree Days  
Heating Degree Days 21 14  
Month to date heating degree days 296 366  
Since 1 July heating degree days 363 572  
Cooling Degree Days 0 0  
Month to date cooling degree days 0 0  
Year to date cooling degree days 3597 3146  
Moisture  
Dew Point 28 °F    
Average Humidity 60    
Maximum Humidity 89    
Minimum Humidity 30    
Precipitation  
Precipitation 0.00 in 0.03 in 1.11 in (1906)
Month to date precipitation 0.93 0.84  
Year to date precipitation 7.66 11.50  
Snow  
Snow 0.00 in - - ()
Month to date snowfall 0.0  
Snow Depth 0.00 in    
Sea Level Pressure  
Sea Level Pressure 30.10 in    
Wind  
Wind Speed 4 mph (SSE)    
Max Wind Speed 12 mph    
Max Gust Speed 20 mph    
Visibility 10 miles    
Events      
T = Trace of Precipitation, MM = Missing Value Source: NWS Daily Summary

Daily Weather History Graph

Daily Weather History Graph

Search for Another Location

Airport or City:

Trip Planner

Search our weather history database for the weather conditions in past years. The results will help you decide how hot, cold, wet, or windy it might be!

Date:

Astronomy

Dec. 28, 2012 Rise Set
Actual Time 7:23 AM MST 5:27 PM MST
Civil Twilight 6:56 AM MST 5:54 PM MST
Nautical Twilight 6:26 AM MST 6:25 PM MST
Astronomical Twilight 5:56 AM MST 6:55 PM MST
Moon 6:04 PM MST (12/28) 7:23 AM MST (12/28)
Length of Visible Light 10h 58m
Length of Day
10h 03m
Full, 100% of the Moon is Illuminated
Dec 28
Full
Jan 4
Last Quarter
Jan 11
New
Jan 18
First Quarter
Jan 26
Full

Hourly Weather History & Observations

Time (MST) Temp. Windchill Dew Point Humidity Pressure Visibility Wind Dir Wind Speed Gust Speed Precip Events Conditions
12:53 AM 36.0 °F 32.1 °F 30.9 °F 82% 30.04 in 10.0 mi SSE 4.6 mph - N/A   Clear
1:53 AM 36.0 °F 32.1 °F 30.9 °F 82% 30.05 in 10.0 mi SSE 4.6 mph - N/A   Clear
2:53 AM 34.0 °F 28.8 °F 30.0 °F 85% 30.06 in 10.0 mi SSE 5.8 mph - N/A   Clear
3:53 AM 33.1 °F 27.7 °F 28.9 °F 85% 30.07 in 10.0 mi SSE 5.8 mph - N/A   Clear
4:53 AM 32.0 °F 26.4 °F 28.0 °F 85% 30.08 in 10.0 mi SE 5.8 mph - N/A   Clear
5:53 AM 32.0 °F 25.6 °F 28.0 °F 85% 30.09 in 10.0 mi SE 6.9 mph - N/A   Clear
6:53 AM 32.0 °F 24.8 °F 28.0 °F 85% 30.12 in 10.0 mi SSE 8.1 mph - N/A   Clear
7:53 AM 33.1 °F 25.5 °F 28.0 °F 82% 30.13 in 10.0 mi SSE 9.2 mph - N/A   Clear
8:53 AM 37.0 °F 31.6 °F 28.9 °F 73% 30.14 in 10.0 mi SSE 6.9 mph - N/A   Clear
9:53 AM 42.1 °F - 30.0 °F 62% 30.15 in 10.0 mi Calm Calm - N/A   Clear
10:53 AM 46.0 °F - 30.0 °F 54% 30.15 in 10.0 mi Calm Calm - N/A   Clear
11:53 AM 51.1 °F - 28.0 °F 41% 30.11 in 10.0 mi Calm Calm - N/A   Clear
12:53 PM 52.0 °F - 27.0 °F 38% 30.08 in 10.0 mi North 4.6 mph - N/A   Clear
1:53 PM 53.1 °F - 26.1 °F 35% 30.06 in 10.0 mi Calm Calm - N/A   Clear
2:53 PM 55.0 °F - 25.0 °F 31% 30.05 in 10.0 mi Variable 5.8 mph - N/A   Clear
3:53 PM 54.0 °F - 25.0 °F 33% 30.08 in 10.0 mi Calm Calm - N/A   Clear
6:53 PM 48.0 °F - 28.9 °F 48% 30.11 in 10.0 mi NNW 4.6 mph - N/A   Clear
7:53 PM 46.0 °F 43.1 °F 30.0 °F 54% 30.11 in 10.0 mi NNW 5.8 mph - N/A   Clear
8:53 PM 41.0 °F 39.0 °F 28.0 °F 60% 30.13 in 10.0 mi South 3.5 mph - N/A   Clear
9:53 PM 39.2 °F 35.9 °F 28.4 °F 65% 30.13 in 10.0 mi SSE 4.6 mph - N/A   Clear
10:53 PM 37.9 °F 35.5 °F 28.0 °F 68% 30.13 in 10.0 mi SSE 3.5 mph - N/A   Clear
11:53 PM 35.1 °F 32.2 °F 27.0 °F 72% 30.12 in 10.0 mi ESE 3.5 mph - N/A   Clear